sat.trackr.live / text

‹ back to catalog

STARLINK-34136

NORAD 64112 · 2025-110S

PAYLOAD ACTIVE UNKNOWN

§ Identity

Operator
Country
US
Launch date
2025-05-23
Launch site
AFWTR
Launch vehicle
Mass (kg)
RCS (m²)

Purposes: comms

External: N2YO · Heavens-Above · Gunter

§ Orbital elements

Epoch: 2026-09-20T10:46:44.129568Z

Period
94.01 min
Inclination
53.1586°
Eccentricity
0.0000982
Mean motion
15.31707609 rev/d
Perigee alt
470.0 km
Apogee alt
471.4 km
Semi-major
6,848.9 km
B*
2.5024e-4
RAAN
200.5180°
Arg perigee
58.7519°
Mean anomaly
301.3578°
Rev number
7,572

§ Raw data

STARLINK-341361 64112U 25110S   26263.44912187  .00007410  00000+0  25024-3 0  99952 64112  53.1586 200.5180 0000982  58.7519 301.3578 15.31707609 75721

JSON: /api/v1/satellites/64112 · /tle

For live sub-satellite position, see the globe view (requires WebGL).

§ Visibility from observer

Set your observer location to see the next 7 days of passes ≥ 10°. The values pass through the URL so the page stays shareable.

No JS? Fill the form by hand. The geolocation button needs JavaScript.